Chennai, India

4:52 PM IST on December 15, 2017 (GMT +0530)
Chennai International

Weather History for VOMM - December, 2012

Change the Weather History Date:

Monday, December 3, 2012

  Actual Average Record
Temperature  
Mean Temperature 80 °F -  
Max Temperature 87 °F 81 °F 87 °F (1997)
Min Temperature 72 °F 70 °F 66 °F (1996)
Cooling Degree Days 14    
Growing Degree Days 30 (Base 50)    
Moisture  
Dew Point 74 °F    
Average Humidity 86    
Maximum Humidity 95    
Minimum Humidity 70    
Precipitation  
Precipitation 2.17 in 0.18 in - ()
Sea Level Pressure  
Sea Level Pressure 29.84 in    
Wind  
Wind Speed 7 mph ()    
Max Wind Speed 17 mph    
Max Gust Speed 29 mph    
Visibility 3.0 miles    
Events Rain , Thunderstorm    
Averages and records for this station are not official NWS values.
T = Trace of Precipitation, MM = Missing Value Source: Averaged Metar Reports

Daily Weather History Graph

Daily Weather History Graph

Search for Another Location

Airport or City:

Trip Planner

Search our weather history database for the weather conditions in past years. The results will help you decide how hot, cold, wet, or windy it might be!

Date:

Astronomy

Dec. 03, 2012 Rise Set
Actual Time 6:16 AM IST 5:41 PM IST
Civil Twilight 5:54 AM IST 6:04 PM IST
Nautical Twilight 5:27 AM IST 6:30 PM IST
Astronomical Twilight 5:01 AM IST 6:56 PM IST
Moon 9:38 PM IST (12/3) 9:42 AM IST (12/3)
Length of Visible Light 12h 10m
Length of Day
11h 24m
Waning Gibbous, 82% of the Moon is Illuminated
Dec 3
Waning Gibbous
Dec 6
Last Quarter
Dec 13
New
Dec 20
First Quarter
Dec 28
Full

Hourly Weather History & Observations

Time (IST) Temp. Heat Index Dew Point Humidity Pressure Visibility Wind Dir Wind Speed Gust Speed Precip Events Conditions
12:10 AM 77.0 °F - 71.6 °F 83% 29.86 in 2.2 mi North 5.8 mph - N/A Rain Light Rain
12:40 AM 75.2 °F - 71.6 °F 89% 29.86 in 1.2 mi NE 9.2 mph - N/A Rain , Thunderstorm Thunderstorms and Rain
1:10 AM 75.2 °F - 73.4 °F 94% 29.86 in 1.1 mi ENE 17.3 mph 28.8 mph N/A Rain , Thunderstorm Thunderstorms and Rain
1:40 AM 75.2 °F - 73.4 °F 94% 29.83 in 1.2 mi NE 11.5 mph - N/A Rain , Thunderstorm Thunderstorms and Rain
2:10 AM 75.2 °F - 73.4 °F 94% 29.83 in 1.6 mi ENE 16.1 mph - N/A Rain , Thunderstorm Thunderstorms and Rain
2:30 AM 76 °F - 73 °F 89% 29.87 in 1 mi NE 2.3 mph - - Rain Light Rain
2:40 AM 75.2 °F - 73.4 °F 94% 29.83 in 2.5 mi NE 9.2 mph - N/A Rain , Thunderstorm Light Thunderstorms and Rain
3:10 AM 75.2 °F - 73.4 °F 94% 29.83 in 2.5 mi NNE 6.9 mph - N/A Rain , Thunderstorm Light Thunderstorms and Rain
4:10 AM 75.2 °F - 71.6 °F 89% 29.80 in 2.5 mi NNE 4.6 mph - N/A   Light Drizzle
4:40 AM 75.2 °F - 71.6 °F 89% 29.80 in 2.5 mi Calm Calm - N/A   Light Drizzle
5:10 AM 75.2 °F - 71.6 °F 89% 29.80 in 2.5 mi Calm Calm - N/A   Light Drizzle
5:30 AM 74 °F - 72 °F 93% 29.85 in 2 mi Calm Calm - - Rain Light Rain
5:40 AM 75.2 °F - 71.6 °F 89% 29.83 in 2.5 mi Calm Calm - N/A   Light Drizzle
6:10 AM 75.2 °F - 73.4 °F 94% 29.83 in 2.2 mi Calm Calm - N/A   Haze
6:40 AM 75.2 °F - 73.4 °F 94% 29.83 in 2.2 mi Calm Calm - N/A   Haze
7:10 AM 75.2 °F - 73.4 °F 94% 29.83 in 2.2 mi Calm Calm - N/A   Haze
7:40 AM 75.2 °F - 73.4 °F 94% 29.86 in 2.2 mi NW 4.6 mph - N/A   Haze
8:10 AM 77.0 °F - 75.2 °F 94% 29.86 in 2.2 mi WNW 3.5 mph - N/A   Haze
8:30 AM 77 °F - 75 °F 93% 29.91 in 6 mi Calm Calm - -   Partly Cloudy
8:40 AM 77.0 °F - 75.2 °F 94% 29.89 in 2.8 mi WNW 2.3 mph - N/A   Haze
9:10 AM 77.0 °F - 75.2 °F 94% 29.89 in 2.8 mi WNW 2.3 mph - N/A   Haze
10:10 AM 82.4 °F 90.9 °F 77.0 °F 84% 29.89 in 4.3 mi ENE 13.8 mph - N/A   Scattered Clouds
10:40 AM 84.2 °F 92.3 °F 75.2 °F 74% 29.86 in 5.0 mi NE 12.7 mph - N/A   Scattered Clouds
11:10 AM 84.2 °F 92.3 °F 75.2 °F 74% 29.86 in 5.0 mi NE 13.8 mph - N/A   Scattered Clouds
11:30 AM 83 °F - 75 °F 71% 29.88 in 6 mi SE 5.8 mph - -   Partly Cloudy
11:40 AM 84.2 °F 92.3 °F 75.2 °F 74% 29.86 in 5.0 mi ENE 12.7 mph - N/A   Scattered Clouds
12:10 PM 86.0 °F 95.1 °F 75.2 °F 70% 29.83 in 5.0 mi NE 11.5 mph - N/A   Scattered Clouds
12:40 PM 86.0 °F 95.1 °F 75.2 °F 70% 29.80 in 5.0 mi NE 11.5 mph - N/A   Scattered Clouds
1:10 PM 84.2 °F 92.3 °F 75.2 °F 74% 29.80 in 4.3 mi NE 8.1 mph 19.6 mph N/A   Mostly Cloudy
1:40 PM 84.2 °F 92.3 °F 75.2 °F 74% 29.80 in 4.3 mi ENE 13.8 mph - N/A   Mostly Cloudy
2:10 PM 86.0 °F 95.1 °F 75.2 °F 70% 29.77 in 4.3 mi ENE 16.1 mph - N/A   Mostly Cloudy
2:30 PM 83 °F - 75 °F 72% 29.81 in 2 mi ENE 6.9 mph - -   Partly Cloudy
2:40 PM 82.4 °F 89.5 °F 75.2 °F 79% 29.77 in 3.7 mi NE 11.5 mph 23.0 mph N/A   Mostly Cloudy
3:10 PM 82.4 °F 89.5 °F 75.2 °F 79% 29.80 in 3.7 mi NE 11.5 mph 23.0 mph N/A   Mostly Cloudy
3:40 PM 82.4 °F 89.5 °F 75.2 °F 79% 29.77 in 3.7 mi NE 13.8 mph - N/A   Mostly Cloudy
4:10 PM 80.6 °F 86.2 °F 75.2 °F 84% 29.77 in 3.7 mi NE 16.1 mph - N/A   Mostly Cloudy
4:40 PM 80.6 °F 86.2 °F 75.2 °F 84% 29.80 in 3.7 mi NNE 13.8 mph - N/A   Mostly Cloudy
5:10 PM 78.8 °F - 73.4 °F 83% 29.80 in 3.7 mi NE 11.5 mph - N/A   Mostly Cloudy
5:30 PM 79 °F - 76 °F 88% 29.84 in 2 mi East 5.8 mph - -   Partly Cloudy
6:10 PM 78.8 °F - 75.2 °F 89% 29.80 in 1.9 mi NE 9.2 mph - N/A Rain Light Rain
8:30 PM 76 °F - 75 °F 95% 29.88 in 1 mi East 4.6 mph - - Rain Rain
9:10 PM 77.0 °F - 75.2 °F 94% 29.86 in 1.6 mi ENE 9.2 mph 20.7 mph N/A Rain , Thunderstorm Thunderstorms and Rain
10:10 PM 77.0 °F - 75.2 °F 94% 29.86 in 2.5 mi NE 10.4 mph - N/A Rain , Thunderstorm Light Thunderstorms and Rain
11:10 PM 77.0 °F - 75.2 °F 94% 29.86 in 2.5 mi NNE 4.6 mph - N/A   Haze
11:30 PM 77 °F - 75 °F 91% 29.87 in 2 mi NE 2.3 mph - - Rain Light Drizzle
11:40 PM 78.8 °F - 75.2 °F 89% 29.83 in 2.5 mi NNE 4.6 mph - N/A   Haze